Regional Weather Roundup
Issued by NWS

Home | Current Version | Previous Version | Graphics & Text | Print | Product List | Glossary On
Versions: 1 2 3 4 5 6 7 8 9 10 11 12 13 14 15 16 17 18 19 20 21 22 23 24 25 26 27 28 29 30 31 32 33 34 35 36 37 38 39 40 41 42 43 44 45 46 47 48 49 50
000
ASUS44 KMEG 051410
RWRTN
TENNESSEE HOURLY STATE WEATHER ROUNDUP
NATIONAL WEATHER SERVICE MEMPHIS TN
800 AM CST MON DEC 05 2016

TNZ002-004-019-021-049-052-054-088>092-051500-
WEST TENNESSEE

CITY           SKY/WX    TMP DP  RH WIND       PRES   REMARKS
MEMPHIS INTL   CLOUDY    43  40  89 E5        30.02R
NWS MEMPHIS      N/A     42 N/A N/A MISG        N/A
JACKSON        CLOUDY    42  38  85 E7        30.04S
DYERSBURG      CLOUDY   N/A N/A N/A E7        30.02S
UNION CITY     CLOUDY    39  36  87 E7        30.04R WCI  34
PARIS          CLOUDY    37  34  87 E8        30.05R WCI  31
HUNTINGDON     CLOUDY    41  37  87 E8        30.03F FOG
LEXINGTON      CLOUDY    41  39  93 NE7       30.02F
$$

TNZ008-025-027-028-033-062-065-066-051500-
NORTH MIDDLE TENNESSEE

CITY           SKY/WX    TMP DP  RH WIND       PRES   REMARKS
NASHVILLE      CLOUDY    42  39  89 N8        30.07R FOG
PORTLAND       CLOUDY    39  37  93 NE5       30.06F
CLARKSVILLE    CLOUDY    39  34  82 E10       30.07S WCI  32
SMYRNA         CLOUDY    43  41  93 N9        30.07R
CROSSVILLE     CLOUDY    43  42  97 NE5       30.02S
$$

TNZ061-075-076-078-094-096-097-051500-
SOUTH MIDDLE TENNESSEE

CITY           SKY/WX    TMP DP  RH WIND       PRES   REMARKS
FAYETTEVILLE   CLOUDY    45  45 100 N6        30.03R FOG
TULLAHOMA      CLOUDY    45  43  93 NE6       30.02R
WINCHESTER     CLOUDY    45  45 100 NE5       30.03R
MCMINNVILLE    PTSUNNY   45  45 100 NE8       30.03R
COLUMBIA       CLOUDY   N/A N/A N/A NE6       30.02R
SHELBYVILLE    CLOUDY    46  45  93 N7        30.04S
$$

TNZ017-018-042-046-047-051500-
NORTHEAST TENNESSEE

CITY           SKY/WX    TMP DP  RH WIND       PRES   REMARKS
TRI CITIES     CLOUDY    46  45  96 CALM      30.05R FOG
ELIZABETHTON   CLOUDY    46  46 100 SW6       30.04S FOG
$$

TNZ012-013-036-069-073-074-051500-
CENTRAL EAST TENNESSEE

CITY           SKY/WX    TMP DP  RH WIND       PRES   REMARKS
KNOXVILLE      CLOUDY    47  45  93 NE7       30.02S FOG
OAK RIDGE      CLOUDY    49  46  90 VRB3      30.05R
DOWNTOWN KNOXV CLOUDY    48  48 100 CALM      30.05R FOG
GATLINBURG     CLOUDY    45  45 100 CALM      30.03F
MORRISTOWN     CLOUDY    46  46 100 CALM      30.03S FOG
JACKSBORO      CLOUDY    46  45  93 NE5       30.08R
$$

TNZ083-085-099-051500-
SOUTHEAST TENNESSEE

CITY           SKY/WX    TMP DP  RH WIND       PRES   REMARKS
CHATTANOOGA    CLOUDY    48  45  89 NE3       30.04R FOG
$$

SKY/WX REPORTED AS FAIR MEANS FEW OR NO CLOUDS BELOW
12 THOUSAND FEET.




USA.gov is the U.S. government's official web portal to all federal, state and local government web resources and services.